EW9333 St Johns CA current weather conditions

sailwx.info

Wind from 360 at 10 knots gusting 26

Air temperature 5.6° C
Dewpoint 3.1° C

Last reported at 2019-Dec-05 19:00 UTC.
Time now 2019-Dec-05 19:17 UTC

Location: N 47°35' W 052°42'.
View on Google Maps.

See reports from other nearby stations

  
Tides and Currents Weather Stations Pressure Air Temp Water Temp Dewpoint Dewpoint Depression Visibility Wind Speed Wind Dir Waves Ship Positions
date/time (UTC)wind fromknots sea level pressurealtimeterstation pressurevisibilityair tempwater tempwave heightnotes
2019-Dec-05 19:00 360 10 gusting 26 5.6
2019-Dec-05 18:45 265 9 gusting 27 6.7
2019-Dec-05 18:30 360 12 gusting 33 7.8
2019-Dec-05 18:15 360 13 gusting 24 9.4
2019-Dec-05 18:00 238 11 gusting 24 10.0
2019-Dec-05 17:45 237 7 gusting 18 10.6
2019-Dec-05 17:30 360 6 gusting 14 11.1
2019-Dec-05 17:02 360 5 gusting 16 10.0
2019-Dec-05 16:46 263 6 gusting 12 9.4
2019-Dec-05 16:31 360 1 gusting 10 8.3
2019-Dec-05 16:16 076 5.6
2019-Dec-05 16:01 067 5.0
2019-Dec-05 15:46 068 5.0
2019-Dec-05 15:31 360 4.4
2019-Dec-05 15:16 055 3.9
2019-Dec-05 15:00 052 3.3
2019-Dec-05 14:46 360 4 gusting 9 3.3
2019-Dec-05 14:30 360 6 gusting 9 3.3
2019-Dec-05 14:15 360 6 gusting 10 2.8
2019-Dec-05 14:00 360 6 gusting 10 2.8
2019-Dec-05 13:45 360 9 gusting 16 2.8
2019-Dec-05 13:30 360 4 gusting 11 2.8
2019-Dec-05 13:15 360 6 gusting 10 2.8
2019-Dec-05 13:00 360 6 gusting 11 2.8
2019-Dec-05 12:46 360 7 gusting 10 2.8
2019-Dec-05 12:32 360 4 gusting 9 2.8
2019-Dec-05 12:17 360 5 gusting 9 2.8
2019-Dec-05 12:01 081 2.8
2019-Dec-05 11:47 360 3 gusting 6 2.8
2019-Dec-05 11:31 082 3.3
2019-Dec-05 11:16 081 3.3
2019-Dec-05 11:02 150 3.3
2019-Dec-05 10:46 150 3.3
2019-Dec-05 10:31 182 3.3
2019-Dec-05 10:16 182 3.3
2019-Dec-05 10:00 183 3.3
2019-Dec-05 09:45 190 3.9
2019-Dec-05 09:30 196 3.9
2019-Dec-05 09:16 198 3.9
2019-Dec-05 09:00 198 0 gusting 4 3.9
2019-Dec-05 08:46 166 3.9
2019-Dec-05 08:31 360 3.9
2019-Dec-05 08:15 360 3.9
2019-Dec-05 08:00 240 0 gusting 6 3.9
2019-Dec-05 07:45 360 3.9
2019-Dec-05 07:15 360 4 gusting 8 3.9
2019-Dec-05 07:01 360 4 gusting 9 3.9
2019-Dec-05 06:46 243 4 gusting 9 3.9
2019-Dec-05 06:31 250 4 gusting 9 3.9
2019-Dec-05 06:15 360 6 gusting 9 3.9
2019-Dec-05 06:00 232 6 gusting 7 3.9
2019-Dec-05 05:45 205 4 gusting 10 3.9
2019-Dec-05 05:30 240 1 gusting 8 3.9
2019-Dec-05 05:15 360 1 gusting 8 3.9
2019-Dec-05 05:00 360 2 gusting 10 3.9
2019-Dec-05 04:45 184 6 gusting 9 3.9
2019-Dec-05 04:30 360 5 gusting 10 3.9
2019-Dec-05 04:15 360 4 gusting 8 3.9
2019-Dec-05 04:00 221 7 gusting 11 3.9
2019-Dec-05 03:47 205 4 gusting 10 3.9
2019-Dec-05 03:32 360 7 gusting 11 4.4
2019-Dec-05 03:17 360 6 gusting 13 4.4
2019-Dec-05 03:02 240 0 gusting 8 4.4
2019-Dec-05 02:46 360 5 gusting 9 3.9
2019-Dec-05 02:32 360 6 gusting 8 3.9
2019-Dec-05 02:17 208 3 gusting 8 4.4
2019-Dec-05 02:01 360 4 gusting 9 4.4
2019-Dec-05 01:46 247 4 gusting 8 4.4
2019-Dec-05 01:31 227 6 gusting 10 4.4
2019-Dec-05 01:16 196 6 gusting 9 5.0
2019-Dec-05 01:01 244 4 gusting 10 5.0
2019-Dec-05 00:46 360 8 gusting 15 5.0
2019-Dec-05 00:31 267 7 gusting 16 5.0
2019-Dec-05 00:15 247 9 gusting 13 5.0
2019-Dec-05 00:00 241 8 gusting 18 5.0
2019-Dec-04 23:46 269 12 gusting 21 5.0
2019-Dec-04 23:30 235 6 gusting 15 5.0
2019-Dec-04 23:16 360 7 gusting 16 5.6
2019-Dec-04 23:00 231 11 gusting 15 5.6
2019-Dec-04 22:45 360 11 gusting 23 5.6
2019-Dec-04 22:30 360 12 gusting 21 5.6
2019-Dec-04 22:15 270 8 gusting 15 6.1
2019-Dec-04 22:00 360 8 gusting 17 6.1
2019-Dec-04 21:47 259 11 gusting 28 6.1
2019-Dec-04 21:32 211 6 gusting 17 6.7
2019-Dec-04 21:16 360 6 gusting 14 6.7
2019-Dec-04 21:02 209 7 gusting 17 6.7
2019-Dec-04 20:47 261 11 gusting 23 6.7
2019-Dec-04 20:32 250 8 gusting 20 6.7
2019-Dec-04 20:17 248 8 gusting 25 7.2
2019-Dec-04 20:02 360 8 gusting 16 7.2
2019-Dec-04 19:46 360 11 gusting 26 7.2
2019-Dec-04 19:31 360 9 gusting 19 7.2
2019-Dec-04 19:16 360 9 gusting 22 7.2
2019-Dec-04 19:01 238 10 gusting 19 7.2
2019-Dec-04 18:46 193 10 gusting 38 7.8
2019-Dec-04 18:32 229 8 gusting 19 7.8
2019-Dec-04 18:16 236 10 gusting 31 8.3
2019-Dec-04 18:01 360 9 gusting 20 8.3
2019-Dec-04 17:46 360 8 gusting 17 8.3
2019-Dec-04 17:31 262 10 gusting 16 8.9
2019-Dec-04 17:16 192 6 gusting 13 8.9
2019-Dec-04 17:01 189 6 gusting 19 8.9
2019-Dec-04 16:46 240 5 gusting 9 8.9
2019-Dec-04 16:31 240 6 gusting 19 9.4
2019-Dec-04 16:16 190 9 gusting 19 9.4
2019-Dec-04 16:03 209 7 gusting 14 9.4
2019-Dec-04 15:46 360 8 gusting 21 9.4
2019-Dec-04 15:30 208 10 gusting 28 9.4
2019-Dec-04 15:16 360 12 gusting 27 10.0
2019-Dec-04 15:01 209 10 gusting 21 10.6
2019-Dec-04 14:45 227 7 gusting 22 10.6
2019-Dec-04 14:31 188 7 gusting 19 11.1
2019-Dec-04 14:15 209 8 gusting 28 11.1
2019-Dec-04 14:01 193 7 gusting 32 11.1
2019-Dec-04 13:46 360 4 gusting 17 11.1
2019-Dec-04 13:31 205 5 gusting 9 10.6
2019-Dec-04 13:15 175 7 gusting 13 10.6
2019-Dec-04 13:00 203 4 gusting 9 11.1
2019-Dec-04 12:45 227 2 gusting 8 10.6
2019-Dec-04 12:31 162 2 gusting 8 10.0
2019-Dec-04 12:15 202 5 gusting 7 10.0
2019-Dec-04 12:00 205 0 gusting 8 10.6
2019-Dec-04 11:46 230 4 gusting 8 10.6
2019-Dec-04 11:30 178 2 gusting 8 10.6
2019-Dec-04 11:15 200 3 gusting 6 10.0
2019-Dec-04 11:00 246 4 gusting 8 10.0
2019-Dec-04 10:45 240 4 gusting 7 10.6
2019-Dec-04 10:30 217 6 gusting 12 10.6
2019-Dec-04 10:15 194 2 gusting 8 10.6
2019-Dec-04 10:00 201 10.0
2019-Dec-04 09:45 242 0 gusting 7 10.0
2019-Dec-04 09:15 211 10.0
2019-Dec-04 09:00 200 2 gusting 7 10.6
2019-Dec-04 08:45 204 10.6
2019-Dec-04 08:30 207 10.6
2019-Dec-04 08:15 208 0 gusting 6 11.1
2019-Dec-04 08:00 207 3 gusting 8 11.1
2019-Dec-04 07:45 204 4 gusting 8 10.6
2019-Dec-04 07:32 204 6 gusting 8 10.6
2019-Dec-04 07:16 196 0 gusting 8 10.6
2019-Dec-04 07:02 195 2 gusting 8 10.0
2019-Dec-04 06:47 184 4 gusting 9 9.4
2019-Dec-04 06:32 210 4 gusting 8 8.9
2019-Dec-04 06:16 232 7.8
2019-Dec-04 06:01 332 6.7
2019-Dec-04 05:46 074 7.8
2019-Dec-04 05:31 153 8.9
2019-Dec-04 05:16 161 8.9
2019-Dec-04 05:01 163 0 gusting 7 7.2
2019-Dec-04 04:46 035 4.4
2019-Dec-04 04:31 034 3.9
2019-Dec-04 04:15 034 3.9
2019-Dec-04 04:01 049 3.9
2019-Dec-04 03:45 067 3.3
2019-Dec-04 03:30 067 3.3
2019-Dec-04 03:15 060 3.3
2019-Dec-04 03:00 060 3.3
2019-Dec-04 02:45 060 3.3
2019-Dec-04 02:30 060 3.3
2019-Dec-04 02:15 060 2.8
2019-Dec-04 01:49 060 2.8
2019-Dec-04 01:32 060 2.8
2019-Dec-04 01:17 060 2.8
2019-Dec-04 01:02 060 2.8
2019-Dec-04 00:46 060 2.8
2019-Dec-04 00:32 060 2.8
2019-Dec-04 00:16 059 2.8
2019-Dec-04 00:01 060 2.8
2019-Dec-03 23:45 060 2.8
2019-Dec-03 23:31 061 2.8
2019-Dec-03 23:15 060 2.8
2019-Dec-03 23:02 044 2.8
2019-Dec-03 22:46 043 2.8
2019-Dec-03 22:31 043 2.8
2019-Dec-03 22:15 043 2.8
2019-Dec-03 22:01 043 2.8
2019-Dec-03 21:45 043 2.8
2019-Dec-03 21:30 053 2.8
2019-Dec-03 21:15 067 2.8
2019-Dec-03 21:00 067 2.2
2019-Dec-03 20:45 071 1 gusting 6 2.2
2019-Dec-03 20:30 061 1 gusting 6 2.2
2019-Dec-03 20:15 070 2 gusting 7 2.2
2019-Dec-03 20:00 078 5 gusting 7 2.2
2019-Dec-03 19:45 076 6 gusting 7 2.2
2019-Dec-03 19:30 360 5 gusting 7 2.2
2019-Dec-03 19:15 070 6 gusting 7 2.2
2019-Dec-03 19:00 071 1 gusting 9 2.2